Other Public Products
Issued by NWS Grand Forks, ND

Home | Current Version | Previous Version | Text Only | Print | Product List | Glossary Off
Versions: 1 2 3 4 5 6 7 8 9 10 11 12 13 14 15 16 17 18 19 20 21 22 23 24 25 26 27 28 29 30 31 32 33 34 35 36 37 38 39 40 41 42 43 44 45 46 47 48 49 50

669
FPUS83 KFGF 260010
OPUFGF
PRAIRIE TO PINES WEATHER ROUNDUP
NATIONAL WEATHER SERVICE EASTERN NORTH DAKOTA/GRAND FORKS ND
700 PM CDT SUN JUN 25 2017

 **SATELLITE DATA USED TO AUGMENT SKY COVER AT AUTOMATED STATIONS**
 *****  WEATHER ACROSS EASTERN NORTH DAKOTA  *****

CITY           SKY/WX    TMP DP  RH WIND       PRES   REMARKS
GRAND FORKS    FAIR      66  42  41 N17       30.17S
6HR MIN TEMP:  63; 6HR MAX TEMP:  68;

GRAND FORKS AF FAIR      63  41  44 N12       30.19R
GRAND CITY NWS NOT AVBL
BUXTON         NOT AVBL
DEVILS LAKE    FAIR      64  37  36 N13       30.21S
6HR MIN TEMP:  61; 6HR MAX TEMP:  65;

FARGO          FAIR      69  40  34 N14       30.15F
6HR MIN TEMP:  65; 6HR MAX TEMP:  71;

WAHPETON ARPT  FAIR      64  39  39 NW9       30.16F
$$

 *****  WEATHER ACROSS CENTRAL AND WESTERN NORTH DAKOTA  *****

CITY           SKY/WX    TMP DP  RH WIND       PRES   REMARKS
JAMESTOWN      FAIR      65  41  41 N13       30.19F
6HR MIN TEMP:  58; 6HR MAX TEMP:  67; 6HR PCP: TRACE;

BISMARCK       FAIR      72  43  35 NW15G23   30.20F
6HR MIN TEMP:  53; 6HR MAX TEMP:  74; 6HR PCP:  0.01;

MINOT          FAIR      67  41  38 N12G22    30.22S
6HR MIN TEMP:  65; 6HR MAX TEMP:  71;

MINOT AFB      FAIR      67  40  38 N10       30.21S
6HR MIN TEMP:  64; 6HR MAX TEMP:  68;

GARRISON         N/A     66  41  40 VRB7      30.21S
6HR MIN TEMP:  62; 6HR MAX TEMP:  69;

WILLISTON      FAIR      74  41  30 NE12      30.22F
6HR MIN TEMP:  67; 6HR MAX TEMP:  76;

DICKINSON      FAIR      71  33  24 N13G21    30.20F
6HR MIN TEMP:  66; 6HR MAX TEMP:  73;

HETTINGER      FAIR      72  37  28 N13       30.22S
6HR MIN TEMP:  70; 6HR MAX TEMP:  77;

$$

 *****  OTHER OBSERVATIONS NORTHEAST NORTH DAKOTA  *****

CITY           SKY/WX    TMP DP  RH WIND       PRES   REMARKS
WALHALLA       NOT AVBL
LANGDON        FAIR      63  39  42 N14G21    30.21S
CAVALIER       FAIR      66  41  39 N12G17    30.18S
GRAFTON        FAIR      63  43  48 N18G25    30.20S
CANDO          NOT AVBL
FORT TOTTEN      N/A     66  41  40 N6        29.95S
ROLLA            N/A     63  37  39 NW14      30.23F
RUGBY          NOT AVBL
 ***** THE ABOVE OBSERVATIONS ARE NON NWS ARE NOT QUALITY
        CONTROLLED AND MAY MIS-REPORT RAIN FOR SNOW...
$$

 *****  OTHER OBSERVATIONS SOUTHEAST NORTH DAKOTA *****

CITY           SKY/WX    TMP DP  RH WIND       PRES   REMARKS
COOPERSTOWN    FAIR      64  39  39 N16G23    30.20S
VALLEY CITY    MOCLDY    64  43  45 N13       30.20S
OAKES          NOT AVBL
GWINNER        MOCLDY    57  52  82 N14G21    30.18F
SHEYENNE NWR     N/A     65  51  61 CALM      29.95S
BUFFALO        NOT AVBL
WYNDMERE       NOT AVBL
 ***** THE ABOVE OBSERVATIONS ARE NON NWS ARE NOT QUALITY
       CONTROLLED AND MAY MIS-REPORT RAIN FOR SNOW...
$$

  *****  WEATHER ACROSS NORTHERN MINNESOTA  *****

CITY           SKY/WX    TMP DP  RH WIND       PRES   REMARKS
FLAG ISLAND    PTSUNNY   55  45  67 E8        30.14S
WARROAD        FAIR      59  45  58 N8        30.16S
ROSEAU         FAIR      61  48  63 N10       30.16S
HALLOCK        PTSUNNY   61  48  63 N7        30.18F
THF RVR FALLS  FAIR      58  41  53 N12G30    30.18S
6HR MIN TEMP:  57; 6HR MAX TEMP:  63; 6HR PCP: TRACE;

HALSTAD        NOT AVBL
FOSSTON        FAIR      57  45  62 N12       30.17S
BAUDETTE       FAIR      59  45  59 NW13      30.13F
6HR MIN TEMP:  55; 6HR MAX TEMP:  61; 6HR PCP: TRACE;

WASKISH        FAIR      57  45  62 NW10      30.14S
CROOKSTON      FAIR      63  41  45 N17       30.17S
$$
  *****  WEATHER ACROSS CENTRAL AND WEST MINNESOTA  *****

CITY           SKY/WX    TMP DP  RH WIND       PRES   REMARKS
BEMIDJI        FAIR      57  46  65 NW13      30.15S
PARK RAPIDS    CLOUDY    62  40  44 N13G25    30.14S
6HR MIN TEMP:  61; 6HR MAX TEMP:  67;

WADENA         FAIR      63  43  48 NW13      30.14S
DETROIT LAKES  FAIR      61  37  41 NW16      30.16S
MOORHEAD       FAIR      66  37  34 N15       30.16S
FERGUS FALLS   PTSUNNY   63  45  51 W8        30.14S
ELBOW LAKE     CLOUDY    62  46  57 W10       30.17S
6HR MIN TEMP:  56; 6HR MAX TEMP:  64; 6HR PCP:  0.02;

MORRIS MN      PTSUNNY   63  46  55 N7        30.17F
STAPLES        FAIR      64  37  36 NW14      30.14S
WHEATON        CLOUDY    55  50  82 N15G23    30.21R
$$
  *****  WEATHER ELSEWHERE ACROSS MINNESOTA  *****

CITY           SKY/WX    TMP DP  RH WIND       PRES   REMARKS
DULUTH         FAIR      56  45  66 NW14G22   30.08F
6HR MIN TEMP:  51; 6HR MAX TEMP:  61; 6HR PCP: TRACE;

INTRNTL FALLS  FAIR      54  45  71 CALM      30.12S
6HR MIN TEMP:  52; 6HR MAX TEMP:  62; 6HR PCP:  0.02;

ELY            CLOUDY    48  46  93 N8        30.10S
CLOQUET        FAIR      55  46  71 NW10      30.10F
BRAINERD       FAIR      64  37  36 NW20G26   30.12S
6HR MIN TEMP:  60; 6HR MAX TEMP:  66; 6HR PCP: TRACE;

HIBBING        LGT RAIN  50  48  93 W6        30.12R
6HR MIN TEMP:  50; 6HR MAX TEMP:  59; 6HR PCP:  0.07;

ALEXANDRIA     CLOUDY    62  44  51 W10       30.17F
6HR MIN TEMP:  60; 6HR MAX TEMP:  66;

SAINT CLOUD    PTSUNNY   65  41  41 NW12G18   30.13S
6HR MIN TEMP:  63; 6HR MAX TEMP:  69;

MINNEAPOLIS    FAIR      67  40  37 NW13      30.12S
6HR MIN TEMP:  62; 6HR MAX TEMP:  69;

$$

  *****  WEATHER ACROSS SOUTH DAKOTA  *****

CITY           SKY/WX    TMP DP  RH WIND       PRES   REMARKS
SIOUX FALLS    FAIR      72  47  40 NW6       30.20F
6HR MIN TEMP:  67; 6HR MAX TEMP:  72;

BROOKINGS      FAIR      64  45  49 N12       30.21F
WATERTOWN      LGT RAIN  56  49  77 W6        30.20F
6HR MIN TEMP:  55; 6HR MAX TEMP:  67; 6HR PCP:  0.02;

HURON          FAIR      73  43  33 N6        30.17F
6HR MIN TEMP:  67; 6HR MAX TEMP:  74; 6HR PCP: TRACE;

SISSETON         N/A     68  45  43 W14       30.16S
ABERDEEN       FAIR      63  49  60 NE3       30.19F
6HR MIN TEMP:  57; 6HR MAX TEMP:  68; 6HR PCP:  0.02;

MITCHELL       FAIR      75  40  28 SE6       30.17F
PIERRE         FAIR      79  34  19 NW9       30.12F
6HR MIN TEMP:  71; 6HR MAX TEMP:  80;

MOBRIDGE       FAIR      74  38  27 N18G24    30.16F
RAPID CITY     FAIR      76  36  23 N6        30.19F
6HR MIN TEMP:  72; 6HR MAX TEMP:  81;

$$

  *****  SOME WEATHER IN NEARBY STATES *****

CITY           SKY/WX    TMP DP  RH WIND       PRES   REMARKS
GLASGOW MT     FAIR      79  33  19 NW8       30.19F
6HR MIN TEMP:  73; 6HR MAX TEMP:  81;

GREAT FALLS MT FAIR      81  37  20 E9        30.18F
6HR MIN TEMP:  72; 6HR MAX TEMP:  82;

CHEYENNE WY    FAIR      69  48  47 MISG      30.33S
6HR MIN TEMP:  60; 6HR MAX TEMP:  70;

SCOTTSBLUFF NE FAIR      78  44  29 SE12      30.22F
6HR MIN TEMP:  73; 6HR MAX TEMP:  79;

OMAHA NE       FAIR      77  40  26 NE7       30.22F
6HR MIN TEMP:  71; 6HR MAX TEMP:  78;

DES MOINES IA  FAIR      73  42  32 NW12      30.19F
6HR MIN TEMP:  70; 6HR MAX TEMP:  75;

DAVENPORT IA   FAIR      67  48  50 NW9       30.16S
6HR MIN TEMP:  65; 6HR MAX TEMP:  69;

CHICAGO IL     PTSUNNY   67  47  48 W21       30.08R
6HR MIN TEMP:  67; 6HR MAX TEMP:  72;

EAU CLAIRE WI  FAIR      63  43  48 NW10      30.09R
6HR MIN TEMP:  56; 6HR MAX TEMP:  66; 6HR PCP:  0.12;

LA CROSSE WI   FAIR      72  45  37 NW14      30.10R
6HR MIN TEMP:  62; 6HR MAX TEMP:  73; 6HR PCP:  0.03;

$$

  *****  SOME NATIONAL WEATHER *****

CITY           SKY/WX    TMP DP  RH WIND       PRES   REMARKS
LA GUARDIA NY  FAIR      77  63  61 S8        29.92S



USA.gov is the U.S. government's official web portal to all federal, state and local government web resources and services.